| time (UTC) | temp C | wind direction | speed KPH | gust KPH | rain 1hr cm | rain 24hr cm | rain mn cm | humidity % | barometer mb |
| 20260507074922 | 12 | 90 | 20.9 | 0.0 | 0.00 | 0.00 | 0.00 | 1015.0 | |
| 20260507073908 | 13 | 90 | 16.1 | 0.0 | 0.00 | 0.00 | 0.00 | 1015.0 | |
| 20260507072854 | 13 | 90 | 6.4 | 0.0 | 0.00 | 0.00 | 0.00 | 1014.9 | |
| 20260507071841 | 13 | 90 | 16.1 | 0.0 | 0.00 | 0.00 | 0.00 | 1014.9 | |
| 20260507070827 | 13 | 90 | 9.7 | 0.0 | 0.00 | 0.00 | 0.00 | 1015.0 | |
| 20260507065814 | 13 | 90 | 14.5 | 0.0 | 0.00 | 0.00 | 0.00 | 1015.0 | |
| 20260507064800 | 13 | 90 | 11.3 | 0.0 | 0.00 | 0.00 | 0.00 | 1015.0 | |
| 20260507063746 | 13 | 45 | 12.9 | 0.0 | 0.00 | 0.00 | 0.00 | 1014.9 | |
| 20260507062733 | 12 | 90 | 14.5 | 0.0 | 0.00 | 0.00 | 0.00 | 1015.0 | |
| 20260507061719 | 12 | 90 | 12.9 | 0.0 | 0.00 | 0.00 | 0.00 | 1014.9 | |
| 20260507060705 | 12 | 90 | 9.7 | 0.0 | 0.00 | 0.00 | 0.00 | 1015.0 | |
| 20260507055652 | 11 | 135 | 4.8 | 0.0 | 0.00 | 0.00 | 0.00 | 1015.0 | |
| 20260507054638 | 11 | 90 | 9.7 | 0.0 | 0.00 | 0.00 | 0.00 | 1014.9 | |
| 20260507053625 | 10 | 90 | 6.4 | 0.0 | 0.00 | 0.00 | 0.00 | 1014.9 | |
| 20260507052611 | 10 | 90 | 9.7 | 0.0 | 0.00 | 0.00 | 0.00 | 1014.9 | |
| 20260507051557 | 9 | 135 | 12.9 | 0.0 | 0.00 | 0.00 | 0.00 | 1014.8 | |
| 20260507050544 | 8 | 90 | 14.5 | 0.0 | 0.00 | 0.00 | 0.00 | 1014.8 | |
| 20260507045530 | 7 | 135 | 11.3 | 0.0 | 0.00 | 0.00 | 0.00 | 1014.8 | |
| 20260507044452 | 7 | 135 | 11.3 | 0.0 | 0.00 | 0.00 | 0.00 | 1014.8 | |
| 20260507043438 | 7 | 135 | 9.7 | 0.0 | 0.00 | 0.00 | 0.00 | 1014.8 | |
| 20260507042424 | 7 | 90 | 12.9 | 0.0 | 0.00 | 0.00 | 0.00 | 1014.8 | |
| 20260507041411 | 7 | 135 | 8.0 | 0.0 | 0.00 | 0.00 | 0.00 | 1014.8 | |
| 20260507040357 | 7 | 90 | 12.9 | 0.0 | 0.00 | 0.00 | 0.00 | 1014.7 | |
| 20260507033702 | 8 | 90 | 14.5 | 0.0 | 0.00 | 0.00 | 0.00 | 1014.8 | |
| 20260507032648 | 8 | 90 | 17.7 | 0.0 | 0.00 | 0.00 | 0.00 | 1014.8 | |
| 20260507031634 | 8 | 90 | 17.7 | 0.0 | 0.00 | 0.00 | 0.00 | 1014.9 | |
| 20260507030621 | 8 | 90 | 17.7 | 0.0 | 0.00 | 0.00 | 0.00 | 1014.9 | |
| 20260507025607 | 8 | 90 | 14.5 | 0.0 | 0.00 | 0.00 | 0.00 | 1014.9 | |
| 20260507024554 | 8 | 90 | 17.7 | 0.0 | 0.00 | 0.00 | 0.00 | 1014.9 | |
| 20260507023540 | 7 | 90 | 12.9 | 0.0 | 0.00 | 0.00 | 0.00 | 1014.9 | |
| 20260507022526 | 7 | 135 | 11.3 | 0.0 | 0.00 | 0.00 | 0.00 | 1015.1 | |
| 20260507021513 | 7 | 135 | 12.9 | 0.0 | 0.00 | 0.00 | 0.00 | 1015.0 | |
| 20260507020459 | 7 | 90 | 14.5 | 0.0 | 0.00 | 0.00 | 0.00 | 1015.0 | |
| 20260507015445 | 7 | 135 | 12.9 | 0.0 | 0.00 | 0.00 | 0.00 | 1015.1 | |
| 20260507014432 | 7 | 135 | 11.3 | 0.0 | 0.00 | 0.00 | 0.00 | 1015.1 | |
| 20260507013418 | 7 | 135 | 12.9 | 0.0 | 0.00 | 0.00 | 0.00 | 1015.2 | |
| 20260507012404 | 7 | 90 | 12.9 | 0.0 | 0.00 | 0.00 | 0.00 | 1015.2 | |
| 20260507011351 | 7 | 135 | 12.9 | 0.0 | 0.00 | 0.00 | 0.00 | 1015.3 | |
| 20260507010338 | 7 | 135 | 12.9 | 0.0 | 0.00 | 0.00 | 0.00 | 1015.3 | |
| 20260507005324 | 7 | 135 | 9.7 | 0.0 | 0.00 | 0.00 | 0.00 | 1015.5 | |
| 20260507004310 | 7 | 135 | 11.3 | 0.0 | 0.00 | 0.00 | 0.00 | 1015.6 | |
| 20260507003257 | 7 | 90 | 11.3 | 0.0 | 0.00 | 0.00 | 0.00 | 1015.6 | |
| 20260507002243 | 7 | 90 | 14.5 | 0.0 | 0.00 | 0.00 | 0.00 | 1015.7 | |
| 20260507001229 | 7 | 90 | 11.3 | 0.0 | 0.00 | 0.00 | 0.00 | 1015.8 | |
| 20260507000216 | 7 | 90 | 14.5 | 0.0 | 0.00 | 0.00 | 0.00 | 1015.8 | |
| 20260506235202 | 7 | 90 | 14.5 | 0.0 | 0.00 | 0.00 | 0.00 | 1015.8 | |
| 20260506234148 | 7 | 45 | 9.7 | 0.0 | 0.00 | 0.00 | 0.00 | 1016.0 | |
| 20260506233135 | 7 | 90 | 11.3 | 0.0 | 0.00 | 0.00 | 0.00 | 1016.1 | |
| 20260506232121 | 7 | 90 | 9.7 | 0.0 | 0.00 | 0.00 | 0.00 | 1016.1 | |
| 20260506231107 | 7 | 90 | 12.9 | 0.0 | 0.00 | 0.00 | 0.00 | 1016.2 | |
| 20260506230054 | 8 | 90 | 12.9 | 0.0 | 0.00 | 0.00 | 0.00 | 1016.1 | |
| 20260506225040 | 8 | 45 | 17.7 | 0.0 | 0.00 | 0.00 | 0.00 | 1016.1 | |
| 20260506224026 | 8 | 45 | 19.3 | 0.0 | 0.00 | 0.00 | 0.00 | 1016.1 | |
| 20260506222901 | 8 | 45 | 17.7 | 0.0 | 0.00 | 0.00 | 0.00 | 1016.2 | |
| 20260506221847 | 8 | 45 | 17.7 | 0.0 | 0.00 | 0.00 | 0.00 | 1016.2 | |
| 20260506220833 | 7 | 90 | 9.7 | 0.0 | 0.00 | 0.00 | 0.00 | 1016.3 | |
| 20260506215820 | 8 | 135 | 6.4 | 0.0 | 0.00 | 0.00 | 0.00 | 1016.4 | |
| 20260506214806 | 7 | 90 | 9.7 | 0.0 | 0.00 | 0.00 | 0.00 | 1016.4 | |
| 20260506213753 | 8 | 90 | 6.4 | 0.0 | 0.00 | 0.00 | 0.00 | 1016.4 | |
| 20260506212739 | 8 | 90 | 4.8 | 0.0 | 0.00 | 0.00 | 0.00 | 1016.3 | |
| 20260506211725 | 8 | 90 | 4.8 | 0.0 | 0.00 | 0.00 | 0.00 | 1016.4 | |
| 20260506210712 | 7 | 90 | 9.7 | 0.0 | 0.00 | 0.00 | 0.00 | 1016.4 | |
| 20260506205658 | 7 | 135 | 6.4 | 0.0 | 0.00 | 0.00 | 0.00 | 1016.4 | |
| 20260506204644 | 8 | 90 | 4.8 | 0.0 | 0.00 | 0.00 | 0.00 | 1016.4 | |
| 20260506203631 | 7 | 0.0 | 0.0 | 0.00 | 0.00 | 0.00 | 1016.4 | ||
| 20260506202617 | 8 | 135 | 3.2 | 0.0 | 0.00 | 0.00 | 0.00 | 1016.4 | |
| 20260506201604 | 8 | 0.0 | 0.0 | 0.00 | 0.00 | 0.00 | 1016.4 | ||
| 20260506200550 | 8 | 315 | 3.2 | 0.0 | 0.00 | 0.00 | 0.00 | 1016.2 | |
| 20260506195536 | 8 | 315 | 6.4 | 0.0 | 0.00 | 0.00 | 0.00 | 1016.2 | |
| 20260506194523 | 8 | 45 | 9.7 | 0.0 | 0.00 | 0.00 | 0.00 | 1016.1 | |
| 20260506193509 | 8 | 0 | 6.4 | 0.0 | 0.00 | 0.00 | 0.00 | 1016.0 | |
| 20260506192455 | 8 | 0 | 9.7 | 0.0 | 0.00 | 0.00 | 0.00 | 1016.0 | |
| 20260506191442 | 8 | 0 | 11.3 | 0.0 | 0.00 | 0.00 | 0.00 | 1015.8 | |
| 20260506190428 | 8 | 0 | 6.4 | 0.0 | 0.00 | 0.00 | 0.00 | 1015.8 | |
| 20260506185414 | 8 | 0 | 9.7 | 0.0 | 0.00 | 0.00 | 0.00 | 1015.6 | |
| 20260506184401 | 9 | 45 | 17.7 | 0.0 | 0.00 | 0.00 | 0.00 | 1015.5 | |
| 20260506183347 | 9 | 45 | 12.9 | 0.0 | 0.00 | 0.00 | 0.00 | 1015.5 | |
| 20260506182334 | 10 | 0 | 14.5 | 0.0 | 0.00 | 0.00 | 0.00 | 1015.6 | |
| 20260506181320 | 10 | 0 | 4.8 | 0.0 | 0.00 | 0.00 | 0.00 | 1015.6 | |
| 20260506180306 | 11 | 0 | 6.4 | 0.0 | 0.00 | 0.00 | 0.00 | 1015.5 | |
| 20260506175253 | 12 | 45 | 6.4 | 0.0 | 0.00 | 0.00 | 0.00 | 1015.5 | |
| 20260506174239 | 12 | 315 | 6.4 | 0.0 | 0.00 | 0.00 | 0.00 | 1015.5 | |
| 20260506173226 | 12 | 0 | 4.8 | 0.0 | 0.00 | 0.00 | 0.00 | 1015.6 | |
| 20260506172212 | 12 | 315 | 6.4 | 0.0 | 0.00 | 0.00 | 0.00 | 1015.6 | |
| 20260506171158 | 12 | 0 | 6.4 | 0.0 | 0.00 | 0.00 | 0.00 | 1015.6 | |
| 20260506170145 | 13 | 0.0 | 0.0 | 0.00 | 0.00 | 0.00 | 1015.6 | ||
| 20260506165131 | 14 | 45 | 6.4 | 0.0 | 0.00 | 0.00 | 0.00 | 1015.6 | |
| 20260506164117 | 14 | 45 | 3.2 | 0.0 | 0.00 | 0.00 | 0.00 | 1015.6 | |
| 20260506163104 | 13 | 0 | 3.2 | 0.0 | 0.00 | 0.00 | 0.00 | 1015.6 | |
| 20260506162801 | 14 | 0 | 4.8 | 0.0 | 0.00 | 0.00 | 0.00 | 1015.5 | |
| 20260506162050 | 14 | 0 | 4.8 | 0.0 | 0.00 | 0.00 | 0.00 | 1015.5 | |
| 20260506161036 | 14 | 0 | 3.2 | 0.0 | 0.00 | 0.00 | 0.00 | 1015.5 | |
| 20260506160023 | 14 | 0.0 | 0.0 | 0.00 | 0.00 | 0.00 | 1015.6 | ||
| 20260506155009 | 15 | 0 | 8.0 | 0.0 | 0.00 | 0.00 | 0.00 | 1015.5 | |
| 20260506153956 | 15 | 45 | 8.0 | 0.0 | 0.00 | 0.00 | 0.00 | 1015.5 | |
| 20260506152942 | 16 | 0.0 | 0.0 | 0.00 | 0.00 | 0.00 | 1015.6 | ||
| 20260506151928 | 16 | 0 | 4.8 | 0.0 | 0.00 | 0.00 | 0.00 | 1015.6 | |
| 20260506150915 | 15 | 0 | 6.4 | 0.0 | 0.00 | 0.00 | 0.00 | 1015.6 | |
| 20260506145901 | 16 | 0.0 | 0.0 | 0.00 | 0.00 | 0.00 | 1015.8 | ||
| 20260506144847 | 16 | 315 | 4.8 | 0.0 | 0.00 | 0.00 | 0.00 | 1015.7 | |
| 20260506143834 | 17 | 0 | 3.2 | 0.0 | 0.00 | 0.00 | 0.00 | 1015.8 | |
| 20260506142820 | 20 | 315 | 4.8 | 0.0 | 0.00 | 0.00 | 0.00 | 1015.8 | |
| 20260506141807 | 17 | 0.0 | 0.0 | 0.00 | 0.00 | 0.00 | 1015.9 | ||
| 20260506140753 | 15 | 315 | 6.4 | 0.0 | 0.00 | 0.00 | 0.00 | 1015.9 | |
| 20260506135739 | 15 | 0.0 | 0.0 | 0.00 | 0.00 | 0.00 | 1015.9 | ||
| 20260506134726 | 15 | 270 | 9.7 | 0.0 | 0.00 | 0.00 | 0.00 | 1015.9 | |
| 20260506133712 | 16 | 270 | 9.7 | 0.0 | 0.00 | 0.00 | 0.00 | 1015.8 | |
| 20260506132658 | 13 | 270 | 8.0 | 0.0 | 0.00 | 0.00 | 0.00 | 1015.7 | |
| 20260506131645 | 12 | 270 | 4.8 | 0.0 | 0.00 | 0.00 | 0.00 | 1015.7 | |
| 20260506130631 | 12 | 270 | 9.7 | 0.0 | 0.00 | 0.00 | 0.00 | 1015.5 | |
| 20260506125617 | 11 | 270 | 16.1 | 0.0 | 0.00 | 0.00 | 0.00 | 1015.4 | |
| 20260506124604 | 11 | 225 | 14.5 | 0.0 | 0.00 | 0.00 | 0.00 | 1015.4 | |
| 20260506123550 | 12 | 270 | 14.5 | 0.0 | 0.00 | 0.00 | 0.00 | 1015.3 | |
| 20260506122537 | 12 | 225 | 14.5 | 0.0 | 0.00 | 0.00 | 0.00 | 1015.3 | |
| 20260506121523 | 12 | 225 | 12.9 | 0.0 | 0.00 | 0.00 | 0.00 | 1015.4 | |
| 20260506120509 | 13 | 270 | 4.8 | 0.0 | 0.00 | 0.00 | 0.00 | 1015.4 | |
| 20260506115456 | 12 | 270 | 6.4 | 0.0 | 0.00 | 0.00 | 0.00 | 1015.4 | |
| 20260506114442 | 12 | 270 | 19.3 | 0.0 | 0.00 | 0.00 | 0.00 | 1015.3 | |
| 20260506113428 | 12 | 225 | 12.9 | 0.0 | 0.00 | 0.00 | 0.00 | 1015.3 | |
| 20260506112415 | 12 | 270 | 11.3 | 0.0 | 0.00 | 0.00 | 0.00 | 1015.4 | |
| 20260506111401 | 12 | 225 | 9.7 | 0.0 | 0.00 | 0.00 | 0.00 | 1015.4 | |
| 20260506110348 | 13 | 225 | 17.7 | 0.0 | 0.00 | 0.00 | 0.00 | 1015.2 | |
| 20260506105334 | 13 | 225 | 12.9 | 0.0 | 0.00 | 0.00 | 0.00 | 1015.3 | |
| 20260506104320 | 13 | 225 | 17.7 | 0.0 | 0.00 | 0.00 | 0.00 | 1015.2 | |
| 20260506103307 | 13 | 270 | 9.7 | 0.0 | 0.00 | 0.00 | 0.00 | 1015.2 | |
| 20260506102253 | 14 | 225 | 8.0 | 0.0 | 0.00 | 0.00 | 0.00 | 1015.2 | |
| 20260506101239 | 14 | 225 | 12.9 | 0.0 | 0.00 | 0.00 | 0.00 | 1015.1 | |
| 20260506100226 | 13 | 225 | 14.5 | 0.0 | 0.00 | 0.00 | 0.00 | 1015.2 | |
| 20260506095212 | 13 | 225 | 16.1 | 0.0 | 0.00 | 0.00 | 0.00 | 1015.1 | |
| 20260506094158 | 12 | 270 | 11.3 | 0.0 | 0.00 | 0.00 | 0.00 | 1015.1 | |
| 20260506093145 | 14 | 270 | 16.1 | 0.0 | 0.00 | 0.00 | 0.00 | 1015.0 | |
| 20260506092131 | 13 | 270 | 14.5 | 0.0 | 0.00 | 0.00 | 0.00 | 1014.8 | |
| 20260506091118 | 13 | 225 | 12.9 | 0.0 | 0.00 | 0.00 | 0.00 | 1014.6 | |
| 20260506090104 | 13 | 225 | 11.3 | 0.0 | 0.00 | 0.00 | 0.00 | 1014.8 | |
| 20260506085050 | 13 | 225 | 20.9 | 0.0 | 0.00 | 0.00 | 0.00 | 1014.6 | |
| 20260506084037 | 12 | 270 | 16.1 | 0.0 | 0.00 | 0.00 | 0.00 | 1014.6 | |
| 20260506083023 | 13 | 270 | 11.3 | 0.0 | 0.00 | 0.00 | 0.00 | 1014.6 | |
| 20260506082009 | 16 | 225 | 16.1 | 0.0 | 0.00 | 0.00 | 0.00 | 1014.5 | |
| 20260506080956 | 15 | 225 | 12.9 | 0.0 | 0.00 | 0.00 | 0.00 | 1014.5 |